East Lindsay
DateTemperatureDew Point
05/05 - 09:30 PM60.1°53.6°
05/05 - 09:15 PM61.5°54.0°
05/05 - 09:00 PM62.6°54.0°
05/05 - 08:45 PM63.6°53.4°
05/05 - 08:30 PM64.3°52.2°
05/05 - 08:15 PM65.0°50.8°
05/05 - 08:00 PM65.8°50.4°
05/05 - 07:45 PM66.4°49.6°
05/05 - 07:30 PM66.8°49.5°
05/05 - 07:15 PM67.5°49.5°
05/05 - 07:00 PM68.2°49.6°
05/05 - 06:45 PM69.1°49.4°
05/05 - 06:30 PM70.3°49.2°
05/05 - 06:15 PM71.1°49.3°
05/05 - 06:00 PM70.5°49.7°
05/05 - 05:45 PM70.2°49.7°
05/05 - 05:30 PM69.5°50.2°
05/05 - 05:15 PM70.1°50.5°
05/05 - 05:00 PM70.4°50.5°
05/05 - 04:45 PM72.4°50.3°
05/05 - 04:30 PM73.3°50.8°
05/05 - 04:15 PM70.9°49.9°
05/05 - 04:00 PM71.1°50.3°
05/05 - 03:45 PM71.4°49.6°
05/05 - 03:30 PM72.6°49.8°
05/05 - 03:15 PM72.2°50.0°
05/05 - 03:00 PM70.4°50.0°
05/05 - 02:45 PM69.4°51.0°
05/05 - 02:30 PM69.1°51.8°
05/05 - 02:15 PM69.9°52.3°
05/05 - 02:00 PM71.4°52.2°
05/05 - 01:45 PM70.0°53.1°
05/05 - 01:30 PM68.4°52.7°
05/05 - 01:15 PM68.9°52.9°
05/05 - 01:00 PM70.2°53.8°
05/05 - 12:45 PM69.1°53.7°
05/05 - 12:30 PM69.8°53.8°
05/05 - 12:15 PM68.8°54.3°
05/05 - 12:00 PM65.9°53.9°
05/05 - 11:45 AM64.0°53.6°
05/05 - 11:30 AM63.4°53.4°
05/05 - 11:15 AM64.0°53.6°
05/05 - 11:00 AM64.0°54.0°
05/05 - 10:45 AM63.8°53.8°
05/05 - 10:30 AM63.2°54.0°
05/05 - 10:15 AM63.5°54.0°
05/05 - 10:00 AM63.2°54.2°
05/05 - 09:45 AM64.0°55.0°
05/05 - 09:30 AM60.7°55.0°
05/05 - 09:15 AM59.1°54.9°
05/05 - 09:00 AM58.2°54.6°
05/05 - 08:45 AM58.2°54.5°
05/05 - 08:30 AM58.2°54.8°
05/05 - 08:15 AM57.4°53.8°
05/05 - 08:00 AM56.7°53.3°
05/05 - 07:45 AM56.6°53.2°
05/05 - 07:30 AM56.3°53.4°
05/05 - 07:15 AM55.9°53.7°
05/05 - 07:00 AM55.7°53.6°
05/05 - 06:45 AM55.4°53.6°
05/05 - 06:30 AM55.2°53.5°
05/05 - 06:15 AM55.0°53.4°
05/05 - 06:00 AM55.0°53.2°
05/05 - 05:45 AM55.0°53.3°
05/05 - 05:30 AM54.9°53.3°
05/05 - 05:15 AM54.8°53.3°
05/05 - 05:00 AM54.7°53.1°
05/05 - 04:45 AM54.7°53.2°
05/05 - 04:30 AM54.7°53.3°
05/05 - 04:15 AM54.8°53.2°
05/05 - 04:00 AM54.7°53.1°
05/05 - 03:45 AM54.8°53.1°
05/05 - 03:30 AM54.8°52.9°
05/05 - 03:15 AM55.0°53.0°
05/05 - 03:00 AM55.1°53.0°
05/05 - 02:45 AM55.0°52.6°
05/05 - 02:30 AM55.1°52.6°
05/05 - 02:15 AM55.2°52.4°
05/05 - 02:00 AM55.5°52.2°
05/05 - 01:45 AM56.0°52.4°
05/05 - 01:30 AM56.5°52.6°
05/05 - 01:15 AM56.6°52.7°
05/05 - 01:00 AM56.7°52.7°
05/05 - 12:45 AM56.7°52.6°
05/05 - 12:30 AM56.8°52.6°
05/05 - 12:15 AM56.9°52.6°
05/05 - 12:00 AM56.8°52.3°
05/04 - 11:45 PM56.8°52.2°
05/04 - 11:30 PM56.8°52.0°
05/04 - 11:15 PM56.9°51.8°
05/04 - 11:00 PM57.2°51.6°
05/04 - 10:45 PM57.5°51.3°
05/04 - 10:30 PM57.5°50.9°
05/04 - 10:15 PM57.7°50.8°
05/04 - 10:00 PM57.8°50.5°
05/04 - 09:45 PM58.3°50.3°
05/04 - 09:30 PM58.6°50.4°
05/04 - 09:15 PM58.9°50.1°
05/04 - 09:00 PM59.1°50.0°
05/04 - 08:45 PM59.3°49.8°
05/04 - 08:30 PM59.6°50.2°
05/04 - 08:15 PM59.8°50.4°
05/04 - 08:00 PM60.0°50.8°
05/04 - 07:45 PM60.5°51.0°
05/04 - 07:30 PM61.3°51.2°
05/04 - 07:15 PM62.3°50.9°
05/04 - 07:00 PM63.1°49.7°
05/04 - 06:45 PM64.1°49.2°
05/04 - 06:30 PM65.3°48.9°
05/04 - 06:15 PM65.6°49.1°
05/04 - 06:00 PM66.3°48.8°
05/04 - 05:45 PM67.4°48.7°
05/04 - 05:30 PM68.3°49.7°
05/04 - 05:15 PM69.2°49.5°
05/04 - 05:00 PM68.7°49.0°
05/04 - 04:45 PM67.4°48.2°
05/04 - 04:30 PM67.8°48.9°
05/04 - 04:15 PM67.5°49.2°
05/04 - 04:00 PM66.7°50.2°
05/04 - 03:45 PM65.7°49.9°
05/04 - 03:30 PM65.5°49.7°
05/04 - 03:15 PM65.5°50.2°
05/04 - 03:00 PM65.2°50.2°
05/04 - 02:45 PM64.8°50.1°
05/04 - 02:30 PM64.7°49.6°
05/04 - 02:15 PM64.3°50.1°
05/04 - 02:00 PM63.6°50.5°
05/04 - 01:45 PM63.0°50.4°
05/04 - 01:30 PM62.3°50.3°
05/04 - 01:15 PM61.9°50.0°
05/04 - 01:00 PM62.0°50.3°
05/04 - 12:45 PM62.3°50.0°
05/04 - 12:30 PM62.5°49.8°
05/04 - 12:15 PM62.0°50.5°
05/04 - 12:00 PM61.0°50.2°
05/04 - 11:45 AM60.1°50.0°
05/04 - 11:30 AM59.6°50.4°
05/04 - 11:15 AM59.8°50.6°
05/04 - 11:00 AM59.8°50.7°
05/04 - 10:45 AM59.8°50.6°
05/04 - 10:30 AM59.3°50.2°
05/04 - 10:15 AM59.3°50.3°
05/04 - 10:00 AM59.4°51.5°
05/04 - 09:45 AM58.9°50.8°
05/04 - 09:30 AM58.7°51.6°
05/04 - 09:15 AM57.9°51.8°
05/04 - 09:00 AM56.9°51.6°
05/04 - 08:45 AM56.4°51.3°
05/04 - 08:30 AM56.0°51.3°
05/04 - 08:15 AM55.3°51.7°
05/04 - 08:00 AM55.1°51.6°
05/04 - 07:45 AM55.3°51.4°
05/04 - 07:30 AM56.1°50.8°
05/04 - 07:15 AM56.5°51.1°
05/04 - 07:00 AM56.1°51.1°
05/04 - 06:45 AM55.7°51.7°
05/04 - 06:30 AM55.2°52.2°
05/04 - 06:15 AM55.4°52.4°
05/04 - 06:00 AM55.4°51.7°
05/04 - 05:45 AM55.5°51.7°
05/04 - 05:30 AM55.7°51.3°
05/04 - 05:15 AM56.6°50.6°
05/04 - 05:00 AM57.2°48.7°
05/04 - 04:45 AM57.4°47.5°
05/04 - 04:30 AM57.4°47.3°
05/04 - 04:15 AM57.5°47.0°
05/04 - 04:00 AM57.6°47.3°
05/04 - 03:45 AM57.7°47.2°
05/04 - 03:30 AM57.8°47.3°
05/04 - 03:15 AM57.9°47.1°
05/04 - 03:00 AM58.0°47.2°
05/04 - 02:45 AM58.0°47.1°
05/04 - 02:30 AM58.1°47.0°
05/04 - 02:15 AM58.2°46.9°
05/04 - 02:00 AM58.3°47.1°
05/04 - 01:45 AM58.3°47.1°
05/04 - 01:30 AM58.4°47.0°
05/04 - 01:15 AM58.5°46.5°
05/04 - 01:00 AM58.7°46.5°
05/04 - 12:45 AM58.9°46.5°
05/04 - 12:30 AM59.2°46.6°
05/04 - 12:15 AM59.4°46.5°
05/04 - 12:00 AM59.6°46.4°
05/03 - 11:45 PM60.0°46.4°
05/03 - 11:30 PM60.4°46.4°
05/03 - 11:15 PM60.7°46.3°
05/03 - 11:00 PM61.2°46.1°
05/03 - 10:45 PM61.8°45.5°
05/03 - 10:30 PM62.1°45.1°
05/03 - 10:15 PM62.3°45.2°